Flag for Hungary Weather past 2 weeks in Szeged, Hungary

Now
77 °F

Passing clouds.


Feels Like: 78 °F
Forecast: 54 / 78 °F
Wind: 1 mph from South

Location: Szeged

Current Time: Aug 22, 2014 at 6:38:09 PM

Latest Report: Aug 22, 2014 at 6:00 PM


Visibility: 31 mi

Pressure: 29.99 "Hg

Humidity: 35%

Dew point: 47 °F

Location of SzegedLocation

Historic Weather in Szeged — Graph

°F

Szeged temperature yesterday

Maximum temperature yesterday: 71 °F (at 3:00 PM)
Minimum temperature yesterday: 55 °F (at 11:00 PM)
Average temperature yesterday: 65 °F

Past Weeks' High & Low Weather Summary

 TemperatureHumidityPressure
High89 °F (Aug 13, 2:00 PM)96% (Aug 8, 4:00 AM)30.08 "Hg (Aug 8, 4:00 AM)
Low50 °F (Aug 18, 6:00 AM)33% (Aug 17, 6:00 PM)29.72 "Hg (Aug 14, 12:00 AM)
Average70 °F70%29.94 "Hg
* Reported Aug 7 5:00 PM — Aug 22 5:00 PM, Szeged, Weather by CustomWeather, © 2014

Note: Actual official high and low records may vary slightly from our data, if they occured in-between our weather recording intervals... More about our weather records

Advertising

Szeged weather history for previous 24 hours

 ConditionsComfort  
Time TempWeatherWind HumidityBarometerVisibility
5:00 PM
Aug 22
78 °FPassing clouds.1 mph37%30.01 "Hg31 mi
4:00 PM77 °FPassing clouds.3 mph38%30.01 "Hg31 mi
3:00 PM77 °FPassing clouds.2 mph38%30.02 "Hg31 mi
2:00 PM76 °FPassing clouds.2 mph42%30.04 "Hg31 mi
1:00 PM74 °FPassing clouds.3 mph45%30.04 "Hg31 mi
12:00 PM71 °FPassing clouds.3 mph50%30.06 "Hg31 mi
11:00 AM68 °FPassing clouds.3 mph52%30.08 "Hg28 mi
10:00 AM64 °FScattered clouds.3 mph61%30.08 "Hg25 mi
9:00 AM60 °FScattered clouds.3 mph73%30.08 "Hg25 mi
8:00 AM57 °FPassing clouds.2 mph80%30.08 "Hg19 mi
7:00 AM54 °FScattered clouds.3 mph86%30.08 "Hg19 mi
6:00 AM53 °FScattered clouds.3 mph86%30.08 "Hg12 mi
5:00 AM54 °FPassing clouds.2 mph86%30.08 "Hg16 mi
4:00 AM54 °FPassing clouds.2 mph87%30.07 "Hg16 mi
3:00 AM54 °FPassing clouds.2 mph91%30.07 "Hg16 mi
2:00 AM55 °FClear.2 mph92%30.07 "Hg12 mi
1:00 AM56 °FClear.2 mph91%30.07 "Hg12 mi
12:00 AM54 °FPassing clouds.2 mph89%30.07 "Hg16 mi
11:00 PM
Aug 21
55 °FPassing clouds.1 mph88%30.06 "Hg16 mi
10:00 PM56 °FClear.1 mph88%30.05 "Hg16 mi
9:00 PM58 °FPassing clouds.1 mph84%30.04 "Hg16 mi
8:00 PM64 °FPassing clouds.2 mph72%30.02 "Hg19 mi
7:00 PM69 °FPassing clouds.6 mph53%30.00 "Hg19 mi
6:00 PM71 °FPassing clouds.5 mph53%29.99 "Hg19 mi
Weather by CustomWeather, © 2014

See weather overviewHow to use our weather pages